カタログに戻る

STARLINK-5423

運用中通信VLEO
NORAD 55670·PAYLOAD·🇺🇸 United States

打ち上げ Feb 17, 2023 から Vandenberg Space Force Base

Loading…

次のパス (今後24時間)

TLE

最新Source: CelesTrak SupGP

元期: Sep 14, 2026, 22:09 UTC

1 55670C 23021AU  26257.92340278 -.00003818  00000+0 -31997-3 0  2578
2 55670  70.0021  47.2639 0003062 271.6414  13.3669 14.98333881    19

AllMySatでSTARLINK-5423をリアルタイム追跡

Download on the App Store